Wind_Speed
12 13 15 16 17 18 19 20 20 21 22 23 24 26 27 27 28 29 29 30 31 32 33 34 35 37 38 36 32 29 25 22 20 18 16 15 14 13 14 15 16 16 16 16 18 19 21 23 23 26 27 26 28 29 30 29 30 32 31 31 30 31 35 35 36 36 35 35 35 34 34 33 33 35 34 34 36 36 38 40 41 42 42 42 39 37 36 36
14 15 16 17 19 20 21 21 22 22 23 24 26 27 28 28 29 30 30 31 32 32 33 34 35 38 38 34 32 29 26 22 19 17 16 15 14 13 14 15 16 16 16 17 18 19 21 22 24 27 28 29 30 31 33 31 31 34 33 33 32 32 34 36 36 36 35 36 36 35 35 34 33 35 34 33 35 36 37 39 40 42 43 43 41 39 38 37
15 16 18 19 20 21 22 23 23 24 24 26 27 29 29 29 30 31 31 32 32 32 32 34 35 37 37 33 31 28 26 22 19 17 16 16 14 15 16 17 17 17 17 17 19 21 22 22 23 26 28 31 32 33 35 34 33 34 34 33 33 32 33 35 37 35 36 37 37 36 37 37 35 35 36 35 34 36 38 39 40 41 41 42 43 42 41 40
17 18 19 20 21 23 24 24 25 25 26 27 28 30 30 30 30 31 32 32 32 31 32 32 34 35 35 32 29 27 26 22 19 17 17 16 16 17 18 19 19 19 18 19 21 23 23 23 24 25 28 31 33 35 35 35 35 34 34 34 34 33 33 35 37 36 36 38 38 37 37 39 38 37 38 38 35 36 39 39 40 41 41 42 43 44 43 43
19 20 21 22 23 24 25 26 27 27 28 29 30 31 31 31 31 32 32 33 33 32 32 31 32 33 33 30 28 27 26 23 19 17 17 17 18 19 20 20 20 20 20 20 22 24 24 25 25 25 28 30 33 35 35 36 37 35 34 35 35 34 34 35 36 37 37 39 39 38 37 38 39 38 40 41 38 39 40 40 41 42 43 44 45 44 43 42
21 22 22 23 25 26 27 28 29 29 30 30 31 32 32 32 32 33 34 34 35 34 33 31 30 31 31 28 27 26 25 23 20 18 17 18 19 20 21 21 20 20 20 21 23 25 25 26 26 26 28 31 34 35 36 37 38 37 36 36 36 36 37 37 37 39 39 40 41 39 36 36 37 36 40 42 39 40 40 40 42 43 44 45 46 45 43 41
23 23 24 25 26 27 28 29 30 31 32 32 33 34 35 35 35 35 36 37 38 38 37 35 31 30 29 27 26 26 25 24 22 20 19 20 21 21 22 21 21 21 21 23 24 25 26 27 27 28 30 33 35 36 37 37 38 40 39 38 38 38 40 40 39 42 42 42 43 42 38 37 37 35 38 42 40 39 40 40 41 43 44 45 46 47 45 42
24 25 26 27 27 28 30 31 32 32 33 34 35 36 37 38 38 38 39 40 42 43 43 41 35 31 29 27 26 26 25 24 23 22 22 22 22 22 22 22 22 22 23 24 26 26 27 28 29 30 32 34 36 38 37 38 39 41 41 40 41 41 41 43 42 44 45 44 45 45 41 40 40 36 36 41 42 40 40 40 41 42 43 45 47 47 45 44
26 27 28 28 29 30 32 32 33 34 35 36 37 38 40 40 41 41 42 44 46 47 46 42 37 33 30 29 28 27 25 24 24 23 23 23 23 22 23 24 24 25 26 27 28 28 28 29 30 33 35 37 38 39 39 40 41 42 43 42 43 43 43 45 45 47 47 47 48 48 45 42 43 40 37 41 42 41 41 40 40 42 43 46 48 46 45 46
28 28 29 30 31 32 33 34 35 36 37 38 39 40 41 42 43 44 46 48 49 47 44 41 37 33 31 31 29 27 26 25 25 24 23 24 24 25 26 26 27 28 29 30 30 30 31 31 33 36 38 39 40 40 41 42 43 44 46 46 46 46 45 47 48 49 50 50 51 52 49 46 45 42 39 41 42 42 41 40 41 41 42 46 48 45 44 46
29 30 31 32 32 33 35 36 37 37 38 39 40 41 43 44 45 47 49 49 47 44 42 40 37 33 31 31 30 28 26 25 25 25 25 26 27 28 29 29 30 31 32 33 33 33 34 35 36 38 41 42 42 43 43 44 45 47 50 49 48 49 48 49 50 51 53 54 54 54 53 49 47 45 42 42 43 43 42 41 42 42 42 44 46 45 45 45
31 32 32 33 34 35 36 37 38 39 40 41 42 43 44 46 47 49 50 47 43 41 40 38 36 33 30 30 30 28 26 25 25 25 26 27 29 31 31 32 33 34 35 36 36 36 37 38 39 41 43 44 45 46 46 47 48 49 52 52 51 52 51 50 51 52 55 57 57 56 54 50 48 50 48 47 46 46 44 42 43 44 44 45 45 45 44 44
33 33 34 34 35 36 37 38 39 40 41 42 44 45 46 47 48 49 47 43 40 38 38 36 34 32 30 29 28 27 26 25 26 26 27 29 31 33 33 34 36 37 38 39 40 40 40 41 41 43 46 48 48 49 49 50 51 51 54 55 55 55 53 52 52 54 58 60 59 59 57 51 48 52 54 52 50 49 47 45 45 46 46 46 45 44 42 43
34 35 35 36 36 37 38 39 40 41 43 45 46 47 48 48 48 47 44 42 39 36 35 34 33 31 30 29 27 26 26 26 27 28 30 31 34 35 35 37 38 40 41 41 42 42 43 43 45 47 49 51 51 52 52 52 52 53 55 56 57 57 56 54 55 57 60 61 61 60 60 55 51 53 55 55 54 52 51 49 48 48 48 47 47 46 44 45
35 35 36 37 37 38 39 40 41 43 45 47 49 50 49 49 47 45 44 42 39 35 34 33 32 31 31 30 29 28 27 28 30 31 32 34 36 37 38 39 40 41 42 43 43 44 46 46 48 50 52 53 54 54 54 53 54 55 57 57 58 59 58 56 56 58 59 60 61 60 61 58 54 54 56 57 57 56 54 52 51 51 51 50 50 49 48 48
36 36 37 38 38 39 40 41 43 45 47 49 51 51 51 50 48 45 45 44 41 37 35 36 36 34 33 33 32 31 31 32 33 34 35 36 37 37 38 39 40 42 43 44 45 46 47 48 49 51 53 55 55 56 56 55 55 56 58 58 58 58 58 57 55 56 58 59 60 61 61 61 58 56 56 57 60 60 58 56 55 55 55 52 49 48 48 50
37 37 39 39 39 40 41 43 45 48 50 51 51 52 51 50 47 44 44 45 43 40 39 40 39 37 35 34 33 33 33 34 35 35 36 36 36 36 37 38 40 42 44 45 47 48 49 49 51 54 55 56 56 57 57 56 56 57 58 58 57 57 58 58 56 56 58 60 62 62 62 63 62 60 58 57 59 60 57 55 55 55 54 51 47 48 49 52
38 39 40 40 41 42 43 45 48 51 52 51 51 51 51 49 46 44 44 45 44 43 40 40 39 37 35 33 33 34 34 35 36 37 36 36 35 35 37 39 41 43 45 48 50 51 52 51 54 58 57 56 57 58 58 57 58 58 58 58 57 57 58 59 59 59 59 61 63 64 64 65 64 62 60 56 54 56 55 54 55 54 53 51 50 51 52 54
40 41 41 42 43 44 46 49 51 53 53 52 51 51 51 49 47 45 44 45 45 43 39 36 35 34 33 33 33 34 35 36 37 37 36 36 36 37 39 42 44 46 50 53 55 55 55 55 59 61 59 59 59 59 58 57 57 57 57 58 58 58 58 58 60 61 63 64 64 66 67 68 66 64 60 55 51 53 55 54 54 54 53 53 53 53 53 53
42 42 43 44 45 47 49 52 54 56 55 53 52 52 51 49 47 44 42 41 41 41 39 36 34 33 33 33 33 35 37 38 38 38 38 39 39 41 43 46 48 51 55 57 59 60 59 59 63 63 62 62 61 59 58 57 58 58 58 58 59 60 60 59 62 63 66 70 69 68 70 71 69 66 62 59 55 54 55 54 54 54 54 54 54 52 51 50
43 44 45 47 48 50 53 55 57 58 58 56 54 53 52 51 50 48 45 43 39 38 39 38 36 36 35 35 35 37 38 39 40 40 42 42 43 45 48 50 53 56 59 61 63 64 62 63 64 63 63 63 61 60 59 59 60 60 60 61 61 63 64 64 65 67 70 74 73 71 73 74 72 68 66 63 60 58 58 57 56 54 52 52 53 52 49 45
45 46 47 49 52 54 57 59 60 61 61 58 56 55 54 53 52 51 50 50 47 43 40 38 37 37 37 37 38 39 40 42 43 44 45 46 47 49 52 54 57 60 62 64 67 67 65 65 66 65 65 65 63 61 60 61 62 63 64 65 66 67 69 69 69 71 73 76 77 74 74 77 73 70 69 66 62 62 60 58 57 53 49 50 52 52 45 40
47 48 50 52 55 58 60 62 63 63 62 59 57 56 55 54 53 52 51 51 51 49 45 42 40 39 38 38 39 40 42 44 45 47 48 50 51 53 55 57 60 63 65 67 69 69 67 68 68 67 66 66 64 62 62 62 63 66 68 69 70 71 73 75 75 75 76 77 79 77 78 79 74 72 74 67 63 63 60 57 55 52 50 51 52 52 45 39
49 50 52 55 58 61 63 64 64 62 59 57 56 56 56 55 54 53 52 52 52 50 49 47 44 42 40 40 40 42 44 45 47 49 51 53 54 56 58 60 62 65 67 69 70 69 67 68 67 66 66 65 64 64 65 66 67 68 70 72 74 74 76 79 78 79 79 79 78 80 84 82 75 76 77 68 65 65 60 57 55 53 54 56 55 55 52 45
51 53 55 58 60 62 63 63 61 59 57 56 56 57 56 56 54 53 53 54 53 52 51 48 46 44 43 43 43 44 46 48 50 52 53 55 57 59 61 63 65 67 69 70 70 68 67 68 67 66 66 65 65 66 67 69 70 70 72 73 75 77 78 80 80 81 82 82 81 82 87 86 77 79 79 72 70 68 62 59 57 56 60 62 61 60 59 57
53 55 57 59 61 62 62 61 59 58 57 56 57 58 57 56 55 53 54 54 54 53 51 48 47 46 46 47 47 48 50 52 53 54 56 58 59 62 64 66 67 68 69 70 69 67 67 68 68 66 66 66 67 68 69 71 72 72 73 74 76 78 80 81 80 81 83 84 84 83 85 86 83 83 82 76 76 73 67 64 63 64 67 68 68 67 67 67
55 57 59 60 61 61 60 60 60 59 59 59 59 59 58 57 56 54 55 55 55 53 51 50 49 49 49 50 51 52 53 55 55 57 58 60 62 63 64 66 67 67 67 67 67 67 67 67 66 66 66 66 68 69 70 72 74 75 75 76 78 79 81 81 80 83 84 84 88 84 81 86 89 89 87 81 80 78 74 73 72 73 73 74 76 75 73 72
58 59 60 61 62 62 61 61 61 60 61 61 61 61 60 58 56 55 55 56 55 53 52 52 51 51 52 53 54 54 56 57 58 59 60 62 63 63 64 66 66 66 65 67 68 67 67 67 65 66 67 67 69 70 72 74 76 77 78 79 80 81 82 82 82 85 83 86 92 88 82 89 95 95 90 85 84 84 82 82 80 80 81 81 79 74 70 70
59 60 62 63 63 63 62 61 62 62 62 63 63 62 61 59 57 55 56 57 56 53 53 53 53 54 55 56 56 56 57 58 59 61 62 63 64 64 65 66 66 67 66 67 68 67 68 68 68 69 69 69 71 72 74 77 79 80 81 82 82 83 84 83 86 87 85 90 96 91 87 92 97 97 92 88 90 88 84 84 86 88 86 80 74 67 63 61
61 62 63 64 64 64 63 62 63 63 64 64 64 63 61 60 59 57 56 57 56 55 53 54 54 55 57 57 58 57 58 59 61 63 63 64 64 65 66 67 67 68 68 68 68 68 68 68 69 70 70 72 74 74 77 79 81 83 83 84 84 86 88 88 90 90 91 95 96 92 90 92 98 100 94 92 92 86 80 84 91 91 83 77 71 64 57 55
63 64 65 65 65 65 64 64 64 65 66 66 65 64 62 60 58 57 56 57 57 56 54 55 56 57 58 59 60 59 59 61 63 64 64 64 64 65 67 67 69 69 69 69 67 67 68 68 70 70 72 76 77 77 78 79 82 84 84 85 88 91 91 91 94 93 94 97 95 93 92 92 100 102 97 93 91 86 85 89 91 86 79 74 67 59 55 55
66 66 66 66 66 65 65 65 65 66 67 66 65 64 62 61 58 56 56 57 58 57 56 58 59 59 59 60 60 60 60 62 64 64 65 65 66 68 69 69 71 71 70 70 70 70 70 71 72 72 74 78 79 80 79 80 83 84 86 88 90 93 92 92 94 93 94 97 96 95 94 96 103 104 98 94 91 89 90 88 85 80 73 68 61 57 55 55
68 67 67 66 66 65 65 64 65 67 66 65 64 63 62 62 58 55 56 58 58 59 59 60 60 60 60 59 60 60 61 62 63 64 64 66 67 69 70 70 70 71 71 71 73 74 74 76 76 74 76 78 80 83 83 84 86 86 89 90 90 91 88 90 93 92 95 98 97 97 97 101 105 103 98 94 91 90 86 80 75 71 67 65 61 58 57 57
68 67 66 65 65 64 64 64 66 67 65 63 63 62 62 61 58 56 57 58 59 60 61 61 61 60 60 60 60 61 61 62 64 64 64 65 66 68 69 69 69 70 70 71 73 75 76 77 77 75 77 79 81 83 86 88 88 88 90 89 89 87 85 88 89 91 96 96 96 99 100 102 105 102 98 93 89 85 78 72 69 67 68 66 62 59 59 61
68 67 65 64 64 63 64 65 66 66 64 62 61 60 60 60 59 58 59 60 61 61 62 61 61 61 60 61 61 62 62 63 64 64 65 66 67 69 70 70 70 70 71 72 73 74 75 76 75 74 76 80 83 84 87 89 89 90 90 88 88 85 85 88 87 90 95 91 92 99 101 103 102 101 99 92 88 83 76 72 69 68 67 63 62 63 64 63
67 66 63 63 63 63 64 65 66 67 65 63 62 60 59 59 59 60 61 62 62 62 62 62 62 61 61 62 62 63 64 65 66 66 66 67 69 70 71 71 71 71 72 73 74 76 76 75 73 73 76 80 84 86 87 89 89 89 89 88 88 87 87 89 88 93 95 89 92 100 102 103 101 103 102 92 89 86 75 67 66 67 66 62 62 65 65 63
67 64 63 62 62 63 65 66 67 67 66 64 63 62 60 60 60 60 61 62 62 62 62 62 62 62 63 64 64 65 66 67 68 68 68 69 70 71 71 71 71 72 73 74 74 77 79 78 73 73 78 81 85 88 87 88 88 87 88 89 89 90 92 91 89 93 93 89 94 100 100 101 102 106 102 92 89 86 76 70 70 72 71 68 66 65 65 64
66 64 63 63 64 65 67 68 69 68 67 65 64 63 62 62 61 61 61 61 61 61 61 62 63 64 64 66 66 67 67 68 69 69 69 70 71 71 72 71 71 72 73 75 76 77 81 84 76 73 80 84 85 88 89 88 87 85 87 89 88 90 93 91 89 92 91 88 93 98 97 99 103 105 99 92 90 85 80 79 78 78 78 75 73 71 70 71
67 65 64 64 66 68 69 70 71 70 69 67 66 66 65 64 64 63 62 61 61 61 62 63 64 65 66 67 68 68 68 68 69 69 70 70 72 72 72 72 73 74 74 75 78 79 81 87 84 77 80 85 87 88 90 89 87 85 87 90 91 90 90 88 86 89 88 86 90 93 93 99 105 101 94 89 86 81 79 81 80 79 81 79 77 74 72 72
68 67 66 66 68 69 70 72 72 73 72 70 68 68 67 66 65 64 63 63 62 62 64 64 65 66 66 67 68 68 69 69 69 69 70 71 72 72 72 73 74 75 76 77 78 80 81 86 90 85 82 84 86 87 90 90 89 90 91 93 94 92 89 87 86 88 86 86 90 89 91 101 106 96 89 85 80 76 75 78 79 78 79 79 76 73 69 67
70 68 66 67 69 71 72 72 73 73 73 70 69 69 68 67 65 64 63 63 63 64 65 66 66 66 68 69 69 68 69 70 70 71 72 72 72 73 73 74 75 76 78 78 78 81 83 85 89 89 86 85 84 85 87 88 89 92 93 93 91 89 88 87 89 91 86 87 91 87 92 104 102 90 85 81 76 75 74 74 75 76 77 73 69 65 62 60
70 69 67 69 72 73 73 73 72 70 70 69 69 69 68 67 66 65 64 63 64 66 67 68 68 69 70 69 68 68 69 71 72 72 73 72 71 72 73 74 77 78 78 79 79 81 83 85 88 89 88 86 84 84 86 87 89 91 91 90 86 85 85 85 89 91 87 90 92 86 92 103 97 85 82 78 76 77 74 73 73 73 70 66 62 61 57 56
71 70 69 71 72 72 72 71 68 66 66 67 68 68 68 68 67 67 67 66 67 68 69 70 70 70 69 68 67 68 69 71 73 73 73 72 70 71 74 76 78 78 79 80 80 81 82 85 87 88 88 86 84 84 85 87 89 90 89 86 83 83 83 83 85 86 87 92 92 86 93 101 93 83 78 76 77 75 71 70 70 68 64 62 61 59 57 56
72 72 71 72 72 69 67 66 64 63 65 66 67 69 70 71 70 69 68 68 69 70 71 70 70 69 68 67 66 67 69 71 73 72 71 70 71 73 75 76 76 78 80 81 80 80 81 82 85 86 89 91 89 87 87 88 89 89 87 84 83 82 80 81 82 82 88 90 84 84 93 96 89 82 77 74 73 71 67 67 68 67 66 65 64 60 58 57
73 73 73 73 71 67 65 65 66 66 68 69 70 71 72 71 69 68 67 68 70 70 70 69 68 66 65 65 65 66 69 71 71 70 68 69 72 75 76 76 75 77 80 80 79 79 79 81 82 82 86 93 93 90 89 90 89 88 85 84 82 79 78 79 79 82 88 84 79 83 87 86 85 82 76 72 70 68 67 65 66 66 63 63 64 61 59 56
75 74 74 72 69 67 67 68 70 70 70 71 71 71 69 68 66 66 67 68 69 68 67 67 66 65 64 64 65 67 69 69 69 69 69 71 73 75 75 74 74 76 78 78 78 78 78 81 81 80 85 91 91 87 86 86 87 86 86 84 80 77 76 75 75 81 83 79 82 85 78 75 83 81 73 68 63 61 62 61 60 59 56 56 57 57 58 56
76 76 75 73 70 68 68 69 71 71 71 70 70 69 67 66 65 66 66 66 66 66 66 65 64 63 63 64 66 68 68 68 69 70 71 72 73 73 73 73 74 74 75 75 75 76 78 81 80 81 86 90 88 84 82 82 83 84 86 84 77 74 74 72 75 80 78 75 83 84 73 73 80 75 66 60 54 53 56 57 57 55 52 52 52 52 53 54
78 78 77 74 70 68 68 69 70 71 70 68 68 66 65 65 65 65 65 65 65 65 64 64 63 63 64 66 68 69 68 68 69 71 73 73 72 71 71 71 72 72 72 72 72 75 79 82 82 84 87 88 86 82 80 80 80 82 84 79 73 72 72 71 74 77 73 74 81 80 74 75 75 67 58 50 47 49 53 55 56 53 49 51 53 52 51 50
79 77 74 71 69 68 69 70 70 70 68 66 65 64 64 65 65 65 65 64 64 63 63 63 63 64 66 68 68 68 68 69 70 71 72 72 72 72 70 70 71 71 71 71 72 75 79 82 82 84 86 86 83 79 78 78 78 82 81 73 69 71 70 71 75 74 71 74 77 76 74 73 69 61 52 45 45 48 51 55 56 51 48 51 54 54 52 50
73 70 68 68 69 70 72 72 71 68 65 63 63 63 63 64 64 64 63 63 62 62 63 64 64 65 67 68 68 68 68 69 70 71 72 72 71 71 72 71 71 71 71 72 73 75 77 80 81 81 84 85 80 75 75 74 78 82 76 67 67 71 72 74 75 73 71 72 73 71 71 71 66 57 50 48 47 47 49 54 54 50 48 51 54 55 53 51
67 69 70 72 73 73 74 73 69 65 63 62 61 60 61 62 62 62 63 63 63 63 64 65 66 66 67 68 68 68 68 69 70 71 71 71 70 70 72 72 72 72 71 72 74 75 76 78 78 78 81 82 76 72 72 74 79 80 71 66 69 71 72 72 70 70 69 69 70 69 69 69 65 59 55 52 49 48 50 54 54 52 52 54 56 56 55 54
69 72 73 73 72 71 71 70 67 65 63 61 59 59 60 61 62 63 65 65 65 65 67 67 67 68 68 68 68 68 68 69 70 70 70 69 70 70 71 71 70 71 72 73 73 74 74 76 75 74 77 77 71 68 70 75 82 79 69 67 69 68 68 68 67 68 66 64 66 67 65 64 63 62 61 57 54 54 56 58 59 58 56 57 57 56 57 57
Wind_Direction
298 301 304 307 310 312 315 317 319 320 322 322 323 325 326 326 327 329 330 331 332 333 334 334 333 334 335 333 330 328 327 324 319 312 306 306 310 317 323 328 332 330 328 331 333 328 323 321 320 319 317 317 322 325 327 328 327 328 329 329 332 331 329 330 328 331 334 335 337 339 344 352 351 347 350 354 353 353 354 354 355 354 354 353 350 346 345 345
297 300 303 306 309 310 312 314 316 319 321 322 322 323 324 325 326 327 328 329 331 332 332 332 332 334 336 334 330 328 326 322 314 307 301 303 310 317 323 329 332 329 326 327 329 326 322 317 316 317 314 314 318 321 323 325 324 324 324 324 327 328 327 328 326 327 332 333 335 336 336 343 347 344 343 349 350 349 350 350 350 351 352 353 352 348 344 344
296 299 302 305 307 308 310 313 315 318 320 321 320 321 322 324 325 325 326 326 328 329 330 330 330 332 335 333 330 327 325 322 312 304 299 302 311 318 323 327 329 328 326 325 326 325 322 316 313 312 310 311 314 317 320 321 321 321 321 320 322 325 325 326 324 324 328 330 333 335 334 335 339 341 337 340 345 344 344 345 345 346 348 349 350 348 345 345
296 299 302 304 306 307 310 312 315 317 319 319 318 319 320 321 322 322 322 322 324 326 328 328 327 330 332 330 329 326 324 322 314 304 300 302 310 317 321 325 327 326 326 325 325 324 321 316 312 309 306 307 310 314 317 318 319 319 318 317 319 321 321 323 321 320 324 325 328 332 332 332 333 337 334 332 336 337 339 341 342 342 343 345 345 345 344 342
295 298 301 303 305 307 309 312 314 316 317 317 317 317 317 318 318 318 318 319 321 323 326 327 325 326 329 326 325 325 323 321 316 307 303 304 310 317 321 323 324 323 325 325 323 322 319 315 312 309 305 303 306 310 313 316 317 316 315 315 316 317 318 320 319 317 319 320 322 327 329 331 332 334 332 329 330 331 333 337 340 339 339 341 341 342 341 338
295 298 300 301 303 306 308 311 313 314 314 315 315 315 315 315 315 316 316 318 320 322 324 325 322 322 325 322 319 320 321 320 318 313 310 310 313 316 318 319 320 320 322 322 320 318 316 314 312 309 305 304 305 307 310 314 316 315 314 314 314 315 315 317 317 315 316 316 317 321 325 328 330 335 333 327 327 328 328 333 337 338 337 337 338 338 338 336
295 296 298 300 302 305 307 308 310 311 312 313 314 314 313 313 314 315 316 317 318 319 320 321 317 316 320 319 314 315 317 316 317 318 315 314 313 314 315 317 318 320 320 318 316 314 313 313 312 309 306 304 305 307 309 311 314 314 314 313 313 314 314 314 315 315 315 315 313 315 320 324 326 334 335 326 326 326 324 330 334 335 334 335 336 335 335 335
294 295 297 299 302 304 305 306 308 310 311 312 312 312 312 313 314 314 315 316 317 318 318 316 312 308 312 315 312 309 311 311 312 314 314 314 314 315 317 318 319 319 318 317 315 313 313 313 312 310 306 303 305 307 307 308 310 312 312 312 312 313 313 313 314 313 313 313 311 312 317 320 321 329 333 325 324 324 323 328 332 331 332 332 333 331 331 332
293 295 297 300 302 303 303 305 307 309 310 311 311 311 311 311 313 314 315 316 317 319 318 315 310 303 301 308 310 307 306 307 307 307 311 315 317 318 319 319 319 319 319 317 316 314 312 312 311 310 307 304 305 306 306 306 308 310 309 310 311 311 312 312 312 312 311 311 310 310 313 316 317 321 326 323 322 322 321 326 328 329 329 330 331 328 326 327
292 295 297 299 301 302 304 306 308 309 309 310 310 310 310 310 311 313 314 316 318 319 318 315 312 305 298 299 306 307 305 304 303 303 309 316 318 319 320 319 319 319 319 318 317 315 312 311 311 310 308 305 304 304 304 305 306 307 307 308 309 309 310 310 311 310 310 309 308 308 309 312 314 317 320 319 318 316 317 321 323 324 325 327 329 326 323 324
292 295 297 300 302 304 306 307 308 308 308 309 309 308 309 309 311 313 315 318 319 320 319 316 313 309 301 297 301 305 304 302 300 300 308 315 315 317 318 317 318 318 318 317 315 314 311 311 311 310 307 305 304 303 303 303 304 306 306 306 307 307 310 310 311 310 309 308 306 305 307 309 310 312 314 313 314 312 311 314 316 318 320 322 324 323 322 322
293 296 299 301 304 305 306 306 306 307 307 307 307 308 308 310 312 314 316 317 319 322 322 318 314 311 307 301 302 303 302 299 297 300 308 312 312 314 315 316 316 315 315 314 314 313 311 311 311 310 307 305 305 303 303 304 305 305 305 305 305 306 309 311 311 310 308 306 305 304 307 310 308 307 309 309 311 310 308 308 310 313 316 317 319 320 320 319
295 297 301 303 304 304 304 305 305 306 307 307 307 308 309 311 314 315 316 317 320 323 324 320 315 313 311 307 306 305 302 299 298 303 309 309 309 311 312 313 314 313 313 313 313 312 311 311 310 308 305 304 304 305 305 305 305 304 304 305 304 305 307 309 309 308 306 305 305 304 306 311 309 306 307 308 310 309 308 308 308 309 312 315 315 318 320 318
296 299 302 303 303 304 304 304 305 306 306 306 306 307 309 311 314 315 316 317 321 323 322 321 316 312 311 310 309 307 304 303 304 307 308 306 306 308 310 312 312 313 313 312 312 311 310 310 309 307 305 304 305 307 307 305 305 305 305 305 304 305 305 306 307 306 304 303 304 303 304 310 310 306 307 308 310 310 310 312 311 310 311 313 313 314 317 316
297 300 302 302 303 303 304 304 305 305 305 305 305 306 309 311 313 315 315 317 321 321 318 317 316 313 311 311 310 307 306 306 306 305 304 304 304 306 309 310 311 313 313 313 311 311 311 310 310 307 305 306 308 309 308 306 305 305 305 304 304 304 303 304 305 305 305 304 304 303 304 309 310 308 308 311 312 311 312 314 313 312 311 312 311 312 313 312
299 300 301 301 302 302 303 304 305 305 305 305 305 306 308 310 313 315 315 316 318 319 316 316 316 315 314 311 308 305 304 304 304 304 303 303 304 306 307 309 311 313 313 313 313 312 313 312 311 308 307 308 309 309 308 306 305 304 304 304 304 304 304 304 305 307 307 306 305 305 306 309 311 310 312 314 313 312 313 313 312 312 312 313 314 315 315 314
298 298 298 299 299 301 302 304 305 305 306 305 305 305 307 310 312 315 316 316 318 319 318 317 314 313 312 308 305 302 300 301 303 304 305 305 306 307 308 311 313 314 315 314 314 315 314 314 312 310 310 311 309 308 308 306 305 305 305 306 306 306 306 306 307 309 309 308 307 308 309 310 311 312 314 316 315 313 314 315 313 313 315 317 320 322 319 317
295 295 296 297 298 299 301 303 305 307 308 306 305 305 307 309 312 316 318 318 318 317 315 312 308 309 310 306 302 300 298 299 302 304 305 306 307 309 311 313 315 316 316 315 316 316 317 316 314 313 313 312 311 310 310 309 309 308 308 308 308 307 308 309 311 311 310 308 308 310 310 310 310 312 314 317 317 316 318 318 316 316 317 318 321 323 319 317
292 293 295 296 297 299 302 303 305 308 309 308 306 305 307 309 311 314 316 316 315 312 309 306 304 305 308 305 301 298 297 299 301 304 305 306 308 310 312 314 316 317 316 316 317 318 318 317 315 314 314 313 312 312 312 312 311 311 310 310 310 309 309 310 312 312 311 308 309 312 311 309 310 312 315 316 315 316 318 317 317 316 315 316 318 319 316 314
292 293 295 297 298 300 302 304 305 307 309 308 306 305 306 306 307 308 310 312 312 310 309 307 306 305 306 305 302 299 300 302 304 306 306 306 308 310 311 313 315 318 317 317 318 319 319 318 316 315 315 314 313 313 313 313 312 312 312 311 311 311 311 311 311 313 313 310 311 313 311 309 310 313 315 314 313 314 316 316 317 316 314 314 315 315 314 314
292 294 297 298 299 301 302 303 305 306 308 307 305 305 305 306 308 309 312 314 314 312 310 309 308 309 309 306 302 300 302 304 304 304 303 304 306 309 311 311 314 318 317 315 317 319 320 318 317 316 316 314 313 313 312 311 312 312 312 312 312 312 313 312 313 314 314 312 312 313 311 309 310 314 314 313 313 313 314 316 316 315 314 314 313 312 312 312
293 296 298 300 301 302 303 303 304 305 306 306 305 305 306 307 309 310 313 317 318 316 313 310 307 307 307 305 301 299 300 302 303 303 303 304 306 309 310 311 313 315 314 314 315 319 321 319 318 317 316 314 313 312 312 311 312 311 312 313 312 314 314 313 312 313 313 312 313 314 311 309 312 314 312 311 312 312 314 317 316 314 313 312 311 311 310 306
295 298 300 302 302 303 303 304 304 304 304 304 303 304 306 307 308 309 312 315 316 316 315 313 309 307 305 303 301 298 299 300 301 302 302 303 306 307 308 309 311 313 313 313 315 318 320 319 317 317 315 314 312 312 311 310 310 311 313 314 313 315 316 315 313 311 311 311 314 315 311 310 314 313 310 311 312 311 315 317 314 313 313 310 308 307 305 298
297 300 302 303 303 303 304 303 303 303 302 301 302 303 304 305 306 308 310 312 313 314 314 313 310 309 306 303 301 299 299 299 299 300 300 302 304 305 307 308 309 311 312 312 314 316 319 318 317 317 315 314 313 312 311 309 308 309 313 315 316 316 316 316 315 314 312 310 313 314 311 311 315 311 310 312 311 312 315 314 313 313 312 310 306 303 298 291
299 301 302 303 303 303 303 303 303 303 302 300 301 302 303 304 306 307 309 310 311 311 311 310 309 309 306 304 301 300 300 300 301 302 302 303 304 305 308 309 309 310 311 311 313 315 318 317 317 318 316 315 313 312 311 311 310 309 311 315 316 317 316 316 317 317 315 314 313 313 312 314 315 312 312 315 314 315 317 315 314 313 312 309 306 301 296 293
299 301 302 302 303 302 301 301 303 303 302 301 301 302 302 304 305 306 308 309 310 310 309 308 308 307 305 304 303 302 303 304 304 304 304 305 306 307 309 310 309 309 310 310 312 316 318 317 317 317 315 314 314 313 313 313 312 311 312 314 315 317 316 316 318 317 317 316 314 314 316 316 315 314 315 317 317 317 318 316 314 313 311 308 304 302 301 300
299 300 301 302 302 301 300 301 302 303 303 302 302 301 302 303 304 306 308 308 309 310 309 308 307 306 305 305 304 305 305 306 305 306 307 309 309 309 309 309 309 309 310 311 313 317 317 316 317 316 314 314 314 314 314 314 314 314 315 316 316 317 317 317 318 316 316 315 313 316 319 315 314 314 316 319 319 318 318 317 315 312 310 308 306 306 304 302
298 300 300 300 301 300 299 300 302 304 304 304 303 302 301 302 303 305 308 308 308 308 307 307 307 306 306 305 306 306 307 307 308 309 311 311 311 310 310 309 309 310 313 313 314 316 316 316 316 315 314 315 315 315 316 316 316 317 318 319 318 318 317 317 317 315 315 314 313 318 319 315 314 313 316 320 320 319 319 318 316 313 311 311 309 306 302 299
298 299 299 299 299 299 299 300 303 304 305 304 303 302 301 301 301 304 306 307 307 306 306 306 306 306 307 307 307 307 309 310 311 312 313 312 312 311 310 310 310 312 313 314 314 315 315 315 315 314 315 316 315 316 317 317 318 320 321 320 319 318 317 317 316 316 315 313 314 317 319 316 313 314 319 323 322 321 320 318 316 315 313 311 307 301 295 290
297 297 298 298 298 298 298 300 302 304 305 305 303 302 300 300 300 302 304 306 306 305 305 306 306 306 307 306 306 307 310 310 310 312 312 311 311 310 310 310 310 312 312 312 313 314 314 314 314 315 316 315 315 316 317 318 320 321 322 320 318 317 317 316 316 315 314 313 314 317 318 316 313 316 322 324 323 322 317 314 315 314 311 307 303 296 288 279
296 297 297 297 297 297 297 298 301 304 305 305 303 302 300 299 298 300 302 304 304 303 304 305 305 306 306 306 306 307 308 308 309 310 310 310 310 309 309 309 309 310 310 310 311 311 311 312 312 314 316 315 315 316 317 319 320 321 321 320 318 317 317 317 316 316 315 315 317 319 318 315 314 319 323 322 321 318 313 312 313 310 306 303 297 289 282 276
296 296 296 296 295 295 296 297 300 303 304 304 303 301 300 299 298 298 299 300 300 301 304 305 305 306 306 306 307 307 307 307 307 309 309 310 309 309 309 309 309 309 309 309 309 309 309 309 311 313 315 315 317 318 317 317 317 319 320 320 320 320 320 318 318 317 316 316 318 318 316 313 315 320 322 320 317 314 311 310 309 305 301 297 289 282 276 270
296 296 296 295 294 294 294 296 299 302 304 303 302 301 300 299 299 299 298 297 298 300 303 304 304 305 305 305 306 306 307 307 307 308 308 309 309 309 309 310 310 310 310 311 310 309 308 308 311 314 316 316 318 320 319 318 318 319 321 321 321 322 320 318 318 316 315 315 316 316 314 314 317 320 320 317 314 311 309 307 305 300 296 291 285 279 273 265
295 295 295 294 293 293 294 296 299 302 302 302 302 301 300 300 301 299 297 296 297 299 301 302 303 303 304 305 306 306 307 306 306 307 308 308 308 308 309 310 310 311 312 312 311 310 309 309 312 316 317 317 318 320 321 320 320 320 321 321 320 320 318 316 315 314 314 313 314 315 315 316 317 318 318 315 312 309 305 302 298 292 291 290 283 276 270 265
294 294 293 293 292 293 294 296 299 301 301 301 301 301 301 301 300 298 296 296 297 299 300 300 301 302 303 304 305 305 306 306 306 307 308 308 308 309 309 310 311 312 313 313 312 310 308 308 311 315 316 317 319 319 320 320 320 319 319 319 319 318 316 313 311 312 312 310 311 314 315 316 316 317 318 313 308 306 301 297 293 289 289 287 281 274 269 267
292 292 292 292 292 293 295 297 299 299 299 299 299 300 301 301 298 296 295 295 296 298 298 298 299 301 302 303 304 305 305 305 305 307 308 308 308 309 309 310 311 312 313 313 313 312 309 307 310 314 314 315 317 318 319 320 320 320 320 319 318 316 314 312 309 311 310 306 309 313 314 315 315 317 317 311 306 305 300 295 293 291 289 285 281 276 270 270
291 291 292 292 293 294 296 297 298 297 297 297 298 299 300 300 297 295 293 293 295 295 295 296 298 299 300 302 303 304 304 304 305 306 307 308 308 309 309 311 312 313 314 314 314 314 312 309 309 312 314 314 316 318 318 318 319 320 319 318 316 314 313 312 309 310 309 305 307 312 313 313 316 318 315 308 305 304 298 293 290 288 286 282 280 276 270 270
290 291 291 292 294 295 296 296 296 296 295 294 295 297 298 298 297 294 293 293 293 293 293 295 297 297 299 300 301 302 303 304 305 306 307 308 309 310 311 313 314 314 315 315 315 316 315 312 310 312 314 314 316 317 316 315 317 318 318 317 315 312 312 311 309 309 308 305 306 309 310 313 317 317 311 305 305 302 297 295 291 289 287 285 283 278 272 272
290 290 291 292 294 294 294 295 295 295 294 293 293 295 296 296 295 294 292 292 292 292 292 293 295 296 297 299 300 301 302 304 305 306 308 309 310 311 312 314 315 314 314 315 315 316 316 315 313 313 315 315 316 317 315 315 316 316 315 314 312 311 311 309 308 309 307 303 303 304 304 311 317 315 307 304 303 300 298 296 294 293 293 292 291 287 283 279
290 291 292 293 294 293 293 293 293 293 293 293 293 294 294 294 294 293 292 292 292 293 292 292 293 295 297 298 300 301 302 303 304 306 307 309 310 311 313 313 314 314 314 315 315 315 316 316 315 316 316 316 317 317 315 316 318 317 315 314 312 312 311 308 308 311 308 302 302 300 299 309 317 312 304 302 301 300 298 297 296 296 295 296 296 293 290 286
290 291 292 293 292 292 291 291 291 291 292 292 292 293 294 294 294 294 293 293 294 293 292 293 294 295 297 298 299 300 301 301 303 305 306 308 311 312 312 312 313 313 314 314 315 315 316 316 316 317 317 317 317 316 316 317 318 317 315 314 313 313 311 308 308 312 309 303 303 300 297 307 314 309 303 303 301 300 299 298 297 297 297 298 296 293 291 287
289 290 291 292 292 291 290 289 289 290 290 290 291 292 292 293 293 293 292 293 294 293 293 294 295 296 297 298 299 300 300 301 302 304 305 308 310 311 311 311 312 312 313 313 314 315 316 316 316 316 317 317 317 317 317 317 316 315 313 313 312 312 311 308 309 311 308 305 305 301 298 305 309 305 303 303 301 299 299 297 296 296 296 295 292 290 287 285
288 289 291 293 292 291 289 288 289 289 289 289 289 289 289 289 289 290 291 292 292 292 292 293 294 295 296 297 299 300 301 300 301 303 306 308 309 309 309 310 311 312 312 313 314 315 316 316 315 316 316 316 317 317 316 315 314 312 312 313 312 310 310 310 309 308 305 305 305 301 299 302 304 303 302 302 301 300 300 298 296 295 293 291 289 288 285 283
287 288 290 293 293 290 288 288 289 289 288 287 286 285 285 286 287 289 290 291 291 290 291 292 293 295 296 297 299 300 299 299 300 303 306 307 307 307 307 309 311 312 312 313 314 315 316 316 315 316 316 316 317 316 315 315 313 311 313 313 311 310 311 310 307 303 301 302 301 297 296 298 302 305 304 304 305 304 302 301 298 295 293 291 289 286 283 284
287 288 291 292 291 288 286 286 287 287 286 285 284 283 283 285 286 288 288 288 288 288 289 291 292 294 295 297 297 297 297 299 301 303 303 304 305 306 307 309 310 311 311 312 313 314 315 315 315 316 316 317 318 317 317 316 315 314 316 315 312 313 314 311 306 303 302 302 299 297 296 299 307 311 309 309 310 305 304 303 300 299 299 297 293 286 281 283
287 289 291 291 287 285 285 285 286 286 286 284 282 282 284 285 286 286 286 285 286 287 288 290 291 293 294 294 295 295 297 299 300 301 301 302 303 305 307 309 310 310 311 311 312 313 313 314 315 314 314 316 317 316 317 316 315 316 318 316 314 316 315 309 305 304 304 301 300 300 298 303 313 316 312 311 310 306 305 306 306 309 310 306 301 292 282 279
287 288 289 289 286 284 285 286 286 285 283 282 281 282 284 285 285 284 284 284 285 287 288 289 290 291 292 293 294 295 297 298 299 300 301 302 303 305 308 309 309 310 311 311 311 311 311 313 314 312 313 316 316 315 315 315 315 317 319 316 315 315 313 307 304 305 304 300 301 303 303 309 316 317 313 311 310 307 307 309 313 316 316 315 313 306 293 281
286 287 288 287 285 284 286 287 286 284 281 280 280 281 283 283 283 283 284 284 286 287 288 289 289 290 291 292 293 294 296 296 298 299 300 302 303 306 307 308 308 309 310 310 310 310 311 313 313 311 312 316 316 314 314 315 316 318 318 315 314 314 310 305 305 305 304 303 305 307 310 314 316 315 313 311 308 306 306 309 314 315 317 318 318 316 310 294
285 286 286 285 283 283 285 286 286 283 281 279 280 280 281 282 282 282 284 285 286 287 287 288 288 289 290 291 292 293 295 296 298 299 301 302 304 306 307 307 307 308 309 310 310 311 312 312 312 311 312 316 316 313 314 315 316 318 317 314 313 311 306 304 306 307 308 309 308 309 312 314 314 314 311 305 302 303 305 309 312 311 313 316 315 315 314 306
282 284 283 282 281 280 281 283 285 282 279 279 279 279 279 279 280 282 283 284 285 286 286 287 288 288 289 290 291 293 294 296 299 300 301 302 305 305 306 308 308 308 310 311 312 313 312 312 312 311 313 316 316 314 314 315 316 318 317 313 310 308 306 307 309 311 312 311 310 310 310 310 312 312 305 298 298 301 305 309 310 307 307 311 314 314 312 308
279 280 280 280 280 280 279 281 282 279 278 279 278 277 277 277 279 281 282 283 284 285 286 287 287 288 289 291 292 293 295 298 299 301 301 303 305 305 306 308 309 309 311 312 313 313 312 311 312 312 313 316 316 314 313 315 317 319 316 312 312 312 311 311 312 313 314 313 312 312 310 307 309 308 300 297 297 298 303 307 306 304 303 305 310 311 309 308
276 277 278 280 281 281 281 281 279 278 279 278 276 276 276 277 279 280 281 283 284 286 287 287 288 289 290 291 293 295 297 299 300 301 302 303 305 306 307 309 310 311 313 313 313 313 312 311 313 314 313 314 316 315 313 315 319 320 319 318 318 316 314 313 313 315 316 314 314 314 311 307 305 302 300 299 298 298 303 304 303 303 304 304 307 307 306 307
Height
5914 5914 5913 5912 5911 5910 5910 5909 5908 5907 5906 5905 5904 5902 5901 5900 5899 5898 5896 5895 5894 5892 5890 5888 5886 5884 5881 5879 5876 5875 5874 5872 5871 5870 5869 5868 5867 5866 5865 5863 5862 5861 5860 5859 5857 5856 5854 5853 5851 5849 5847 5845 5843 5841 5839 5838 5835 5834 5832 5830 5829 5826 5823 5821 5818 5816 5815 5813 5812 5809 5807 5806 5803 5799 5797 5795 5792 5790 5787 5784 5782 5780 5777 5775 5773 5770 5768 5766
5913 5912 5912 5911 5910 5909 5908 5908 5907 5906 5905 5904 5902 5901 5900 5899 5897 5896 5895 5893 5892 5891 5889 5887 5885 5882 5880 5877 5875 5873 5872 5871 5869 5868 5867 5866 5865 5864 5863 5862 5861 5860 5858 5857 5856 5854 5853 5851 5849 5847 5845 5843 5841 5839 5837 5836 5834 5832 5830 5828 5827 5825 5822 5819 5816 5814 5813 5811 5810 5808 5805 5804 5802 5799 5796 5795 5791 5788 5786 5783 5781 5778 5775 5773 5771 5769 5766 5764
5912 5911 5910 5909 5909 5908 5907 5906 5906 5905 5904 5903 5901 5899 5898 5897 5896 5894 5893 5891 5890 5889 5887 5885 5883 5881 5879 5876 5874 5872 5870 5869 5868 5866 5865 5864 5864 5863 5861 5860 5859 5858 5856 5855 5854 5852 5851 5849 5848 5845 5842 5840 5839 5837 5835 5834 5832 5830 5828 5826 5825 5823 5821 5818 5814 5812 5811 5808 5808 5806 5804 5802 5800 5798 5794 5793 5791 5787 5784 5782 5779 5777 5774 5771 5769 5767 5764 5762
5910 5910 5909 5908 5907 5906 5906 5905 5904 5903 5902 5901 5899 5898 5896 5895 5894 5892 5891 5889 5888 5887 5886 5884 5882 5880 5878 5876 5873 5871 5869 5868 5867 5865 5864 5863 5862 5861 5860 5858 5857 5856 5854 5853 5851 5850 5848 5847 5845 5844 5841 5838 5836 5834 5833 5831 5829 5828 5826 5824 5822 5821 5819 5817 5813 5811 5809 5806 5804 5804 5802 5800 5798 5796 5792 5790 5789 5785 5782 5779 5777 5774 5772 5769 5767 5765 5763 5760
5909 5908 5908 5907 5906 5905 5904 5903 5902 5901 5900 5899 5897 5896 5894 5893 5892 5890 5889 5887 5886 5885 5884 5883 5881 5879 5877 5875 5873 5870 5868 5867 5865 5864 5863 5862 5861 5859 5858 5856 5855 5853 5852 5850 5849 5847 5846 5844 5843 5841 5839 5836 5834 5832 5831 5829 5827 5825 5823 5822 5820 5819 5817 5815 5812 5809 5808 5804 5801 5801 5800 5798 5795 5794 5791 5787 5785 5783 5780 5777 5774 5772 5769 5767 5765 5762 5761 5758
5907 5907 5906 5905 5905 5903 5902 5901 5900 5899 5898 5897 5895 5893 5892 5891 5889 5888 5886 5885 5883 5883 5882 5881 5879 5878 5876 5874 5872 5870 5867 5865 5864 5863 5862 5860 5859 5857 5855 5854 5852 5851 5849 5847 5846 5844 5843 5842 5840 5839 5837 5834 5831 5829 5828 5826 5824 5822 5821 5819 5817 5817 5815 5813 5811 5807 5806 5803 5799 5798 5798 5796 5794 5793 5789 5784 5782 5780 5777 5774 5772 5769 5767 5764 5762 5760 5758 5756
5906 5905 5905 5904 5903 5902 5900 5899 5898 5897 5896 5894 5893 5891 5889 5888 5887 5885 5884 5883 5881 5880 5879 5879 5878 5876 5874 5873 5870 5868 5866 5864 5863 5861 5860 5858 5856 5855 5853 5851 5850 5848 5846 5845 5843 5842 5840 5839 5838 5836 5834 5831 5829 5827 5825 5823 5821 5819 5818 5816 5814 5813 5812 5810 5809 5806 5804 5801 5797 5795 5796 5794 5792 5791 5789 5783 5780 5778 5775 5772 5769 5767 5764 5762 5760 5757 5755 5753
5904 5903 5903 5902 5901 5900 5899 5897 5896 5895 5894 5892 5890 5888 5887 5886 5885 5883 5882 5880 5878 5877 5876 5875 5875 5873 5872 5870 5869 5867 5865 5863 5861 5859 5857 5856 5854 5852 5851 5849 5848 5846 5844 5843 5841 5840 5838 5837 5835 5833 5831 5828 5826 5824 5822 5820 5818 5816 5814 5813 5811 5810 5808 5807 5807 5804 5801 5799 5795 5793 5793 5792 5789 5789 5788 5781 5778 5776 5772 5770 5767 5764 5762 5759 5757 5754 5752 5750
5902 5902 5901 5900 5899 5898 5897 5895 5894 5893 5891 5890 5888 5886 5884 5883 5882 5881 5879 5877 5876 5874 5873 5871 5870 5870 5869 5867 5866 5865 5863 5861 5859 5857 5855 5853 5852 5850 5849 5847 5845 5844 5842 5840 5839 5837 5836 5835 5833 5830 5828 5825 5823 5821 5820 5818 5816 5813 5810 5810 5808 5806 5805 5803 5803 5801 5798 5797 5793 5790 5791 5790 5787 5786 5785 5780 5777 5774 5770 5768 5765 5762 5759 5756 5754 5751 5749 5747
5900 5900 5899 5898 5897 5896 5894 5893 5892 5890 5889 5888 5886 5884 5883 5881 5880 5878 5877 5875 5873 5871 5869 5867 5866 5865 5865 5863 5863 5862 5860 5859 5857 5855 5853 5851 5850 5848 5846 5845 5843 5841 5839 5837 5836 5835 5833 5832 5830 5828 5824 5821 5820 5818 5817 5815 5813 5811 5807 5806 5804 5802 5801 5799 5798 5797 5795 5793 5790 5786 5786 5788 5786 5783 5782 5778 5775 5772 5769 5766 5762 5760 5757 5753 5751 5747 5744 5743
5899 5898 5897 5897 5896 5894 5892 5891 5889 5888 5887 5885 5884 5882 5881 5879 5878 5876 5874 5873 5871 5869 5866 5864 5862 5861 5860 5859 5859 5859 5858 5856 5854 5852 5851 5849 5847 5846 5844 5842 5840 5838 5836 5834 5833 5832 5830 5829 5828 5825 5821 5818 5817 5814 5813 5811 5810 5807 5804 5802 5800 5797 5796 5794 5793 5792 5790 5788 5786 5783 5781 5784 5784 5781 5779 5776 5772 5769 5766 5764 5760 5756 5754 5751 5748 5744 5741 5739
5897 5896 5896 5895 5893 5892 5890 5889 5887 5886 5884 5883 5881 5880 5879 5877 5876 5874 5872 5870 5869 5867 5864 5861 5859 5858 5857 5856 5855 5855 5854 5853 5851 5850 5848 5847 5845 5843 5841 5839 5837 5835 5833 5831 5830 5829 5827 5826 5824 5821 5817 5814 5813 5811 5809 5807 5806 5803 5800 5798 5797 5793 5792 5790 5788 5786 5784 5782 5781 5779 5777 5780 5782 5777 5775 5773 5770 5766 5762 5760 5757 5753 5750 5748 5745 5742 5738 5735
5895 5894 5894 5893 5891 5890 5888 5887 5885 5884 5882 5880 5879 5878 5876 5875 5874 5872 5869 5868 5867 5865 5862 5859 5857 5855 5854 5853 5852 5852 5851 5849 5848 5847 5845 5844 5842 5840 5838 5836 5834 5833 5831 5829 5827 5825 5824 5822 5821 5818 5813 5810 5808 5807 5805 5803 5801 5799 5795 5793 5792 5791 5789 5786 5783 5781 5779 5776 5775 5774 5771 5774 5779 5775 5770 5769 5766 5762 5759 5756 5753 5750 5747 5744 5741 5738 5736 5732
5893 5892 5891 5890 5889 5888 5886 5885 5883 5881 5880 5878 5876 5875 5874 5873 5872 5869 5866 5865 5865 5863 5860 5857 5855 5853 5852 5850 5849 5848 5847 5846 5845 5844 5842 5840 5839 5837 5836 5834 5832 5830 5828 5826 5824 5822 5820 5818 5816 5813 5809 5806 5804 5803 5801 5798 5796 5794 5791 5788 5786 5786 5786 5783 5779 5776 5775 5772 5770 5769 5765 5767 5773 5771 5766 5764 5761 5757 5755 5753 5749 5746 5742 5739 5737 5734 5732 5729
5890 5889 5888 5887 5886 5885 5884 5882 5881 5879 5877 5875 5873 5872 5871 5871 5870 5867 5864 5862 5862 5860 5857 5855 5852 5851 5849 5848 5846 5845 5844 5843 5842 5841 5840 5838 5836 5835 5833 5831 5829 5827 5824 5822 5820 5818 5816 5814 5811 5807 5804 5802 5800 5799 5797 5794 5791 5788 5786 5785 5782 5780 5781 5780 5775 5771 5770 5768 5765 5763 5761 5762 5766 5766 5763 5759 5755 5751 5749 5748 5745 5741 5738 5735 5732 5729 5727 5725
5887 5886 5885 5884 5883 5882 5881 5879 5878 5876 5874 5872 5870 5868 5867 5867 5867 5864 5861 5858 5858 5857 5854 5851 5849 5848 5847 5845 5844 5842 5841 5840 5840 5838 5837 5836 5834 5833 5830 5828 5826 5823 5821 5818 5816 5814 5812 5810 5807 5802 5799 5797 5796 5794 5792 5790 5787 5783 5780 5780 5778 5775 5774 5774 5773 5768 5765 5762 5759 5758 5756 5755 5758 5760 5760 5756 5749 5744 5743 5742 5740 5736 5733 5730 5726 5723 5721 5719
5885 5884 5883 5881 5880 5879 5877 5876 5874 5873 5871 5869 5867 5865 5864 5863 5863 5862 5859 5855 5854 5853 5851 5848 5846 5845 5844 5843 5841 5839 5838 5837 5837 5836 5834 5833 5832 5830 5828 5825 5823 5820 5817 5815 5813 5810 5808 5806 5802 5797 5794 5793 5791 5788 5786 5784 5782 5779 5777 5774 5773 5770 5767 5766 5767 5766 5762 5757 5752 5752 5752 5749 5750 5752 5755 5754 5744 5737 5737 5735 5733 5731 5727 5725 5720 5717 5714 5712
5882 5881 5880 5878 5877 5876 5874 5873 5871 5869 5867 5865 5863 5861 5860 5859 5859 5858 5856 5853 5851 5851 5850 5847 5844 5843 5841 5840 5838 5837 5835 5835 5834 5833 5832 5830 5829 5828 5825 5822 5820 5817 5814 5812 5810 5807 5804 5801 5797 5792 5790 5788 5786 5783 5779 5776 5773 5772 5770 5769 5768 5766 5764 5760 5758 5758 5756 5754 5749 5745 5745 5744 5745 5746 5749 5750 5740 5731 5730 5728 5726 5725 5722 5718 5714 5710 5707 5705
5879 5878 5877 5875 5874 5872 5870 5869 5867 5865 5864 5862 5859 5857 5856 5855 5855 5855 5854 5851 5848 5848 5847 5845 5842 5840 5839 5837 5836 5834 5832 5832 5831 5830 5829 5827 5826 5824 5822 5819 5817 5814 5811 5808 5805 5803 5800 5796 5791 5788 5786 5783 5780 5778 5774 5769 5765 5764 5763 5762 5760 5758 5760 5758 5753 5750 5746 5745 5747 5741 5736 5736 5738 5741 5743 5743 5737 5728 5723 5722 5721 5718 5716 5712 5708 5704 5700 5699
5876 5875 5874 5872 5870 5869 5867 5865 5863 5861 5859 5858 5856 5853 5852 5851 5851 5852 5853 5852 5847 5843 5841 5840 5839 5837 5836 5834 5833 5830 5829 5828 5827 5826 5824 5823 5822 5820 5818 5815 5813 5810 5807 5804 5801 5799 5796 5791 5787 5784 5781 5778 5775 5772 5769 5764 5759 5756 5755 5755 5754 5749 5751 5753 5748 5745 5738 5733 5737 5735 5728 5729 5730 5734 5736 5732 5730 5725 5718 5717 5716 5713 5709 5706 5701 5697 5694 5692
5873 5872 5871 5868 5867 5865 5863 5862 5859 5857 5855 5853 5851 5849 5846 5844 5842 5842 5843 5845 5845 5841 5838 5836 5834 5832 5831 5830 5829 5827 5825 5824 5823 5822 5820 5819 5818 5816 5813 5811 5809 5805 5802 5799 5796 5794 5791 5787 5782 5780 5777 5773 5769 5767 5765 5760 5754 5750 5747 5746 5747 5742 5741 5744 5740 5736 5731 5724 5727 5726 5718 5720 5724 5726 5727 5723 5721 5718 5713 5711 5709 5706 5703 5699 5694 5691 5687 5685
5870 5869 5867 5865 5863 5862 5860 5858 5856 5853 5851 5849 5847 5844 5842 5840 5837 5835 5834 5835 5836 5836 5835 5834 5831 5829 5827 5825 5824 5822 5821 5820 5819 5817 5815 5814 5813 5811 5808 5806 5803 5800 5796 5794 5792 5790 5787 5782 5778 5775 5772 5768 5764 5762 5759 5757 5750 5744 5741 5738 5738 5735 5730 5733 5734 5729 5725 5717 5716 5715 5707 5709 5719 5720 5718 5717 5714 5710 5707 5705 5702 5698 5697 5693 5688 5683 5680 5677
5867 5865 5864 5862 5860 5858 5856 5854 5852 5849 5847 5845 5843 5841 5839 5837 5834 5833 5831 5830 5829 5829 5828 5828 5827 5826 5824 5822 5820 5818 5817 5815 5814 5812 5811 5809 5808 5806 5804 5801 5799 5795 5792 5790 5787 5786 5783 5779 5774 5770 5767 5764 5759 5756 5753 5752 5748 5740 5733 5729 5729 5728 5721 5719 5721 5721 5721 5717 5710 5701 5692 5698 5711 5712 5711 5712 5708 5703 5702 5700 5696 5693 5689 5686 5681 5676 5671 5668
5863 5861 5860 5858 5856 5854 5852 5850 5848 5845 5843 5841 5839 5837 5835 5833 5831 5829 5828 5827 5826 5824 5823 5822 5821 5820 5819 5818 5816 5814 5813 5811 5810 5808 5807 5805 5803 5802 5799 5797 5794 5791 5788 5786 5783 5781 5778 5774 5770 5766 5761 5758 5755 5751 5747 5744 5744 5739 5729 5722 5720 5721 5716 5708 5706 5705 5707 5713 5712 5694 5675 5685 5701 5699 5699 5704 5701 5698 5697 5694 5691 5688 5682 5676 5673 5668 5661 5657
5859 5857 5856 5854 5852 5850 5848 5846 5844 5842 5839 5837 5835 5833 5831 5829 5827 5826 5824 5823 5822 5821 5819 5817 5816 5814 5813 5811 5810 5809 5807 5806 5804 5803 5802 5800 5798 5796 5794 5791 5789 5787 5783 5780 5778 5776 5773 5768 5764 5761 5755 5752 5748 5744 5740 5735 5735 5734 5727 5720 5715 5712 5708 5701 5697 5693 5689 5696 5707 5694 5665 5665 5685 5688 5686 5689 5688 5688 5688 5685 5683 5681 5675 5667 5660 5657 5652 5648
5855 5853 5852 5850 5848 5846 5844 5841 5840 5838 5836 5834 5832 5830 5828 5826 5824 5822 5820 5818 5817 5816 5815 5813 5812 5810 5808 5805 5803 5803 5801 5800 5799 5797 5796 5794 5793 5791 5788 5785 5783 5782 5778 5775 5772 5769 5767 5762 5757 5754 5750 5746 5741 5736 5732 5727 5724 5724 5722 5717 5711 5706 5699 5693 5690 5685 5679 5678 5689 5692 5666 5647 5659 5673 5674 5674 5672 5673 5675 5673 5672 5670 5666 5657 5648 5645 5644 5640
5851 5849 5848 5846 5844 5842 5840 5837 5835 5834 5831 5830 5828 5826 5824 5822 5820 5818 5816 5813 5812 5812 5810 5808 5807 5805 5803 5800 5798 5797 5795 5793 5792 5791 5790 5788 5787 5785 5783 5780 5777 5775 5773 5770 5768 5763 5758 5757 5753 5747 5744 5741 5735 5729 5725 5721 5716 5715 5714 5709 5705 5700 5691 5687 5684 5679 5674 5668 5672 5685 5671 5640 5639 5655 5662 5661 5659 5658 5659 5660 5659 5656 5651 5645 5639 5636 5634 5628
5846 5845 5843 5842 5839 5837 5835 5833 5831 5829 5827 5825 5823 5822 5820 5819 5817 5815 5813 5810 5808 5807 5805 5804 5802 5800 5798 5795 5793 5792 5789 5788 5785 5784 5783 5782 5780 5779 5776 5773 5770 5768 5767 5763 5762 5759 5751 5748 5746 5741 5737 5735 5729 5722 5717 5713 5708 5705 5704 5699 5695 5691 5683 5680 5678 5672 5668 5660 5659 5673 5666 5635 5626 5642 5650 5649 5647 5644 5643 5644 5641 5637 5634 5631 5627 5624 5620 5614
5841 5840 5838 5837 5835 5832 5830 5829 5827 5825 5823 5821 5819 5817 5816 5814 5813 5812 5810 5807 5805 5804 5802 5800 5799 5796 5793 5791 5789 5787 5784 5782 5780 5777 5776 5774 5772 5770 5768 5764 5762 5761 5760 5757 5755 5752 5746 5741 5737 5733 5730 5727 5722 5717 5712 5706 5700 5695 5691 5687 5684 5681 5676 5672 5669 5663 5658 5653 5652 5658 5654 5629 5615 5630 5640 5635 5631 5626 5622 5623 5620 5615 5614 5613 5611 5608 5604 5600
5837 5835 5833 5832 5830 5827 5826 5824 5822 5820 5818 5816 5814 5812 5811 5810 5808 5807 5806 5803 5801 5799 5798 5797 5794 5792 5789 5787 5785 5783 5780 5777 5775 5772 5770 5768 5765 5763 5760 5757 5755 5755 5753 5752 5751 5747 5741 5736 5731 5726 5723 5720 5716 5712 5707 5700 5693 5687 5681 5675 5671 5671 5668 5663 5661 5655 5643 5643 5647 5646 5642 5624 5605 5616 5628 5621 5617 5612 5604 5603 5602 5598 5597 5595 5594 5592 5589 5586
5831 5830 5828 5826 5824 5823 5821 5819 5817 5815 5813 5811 5808 5806 5805 5804 5804 5803 5801 5799 5796 5794 5794 5792 5790 5788 5785 5782 5780 5778 5777 5772 5770 5767 5763 5762 5759 5756 5756 5751 5750 5751 5748 5746 5747 5746 5739 5732 5729 5723 5716 5711 5707 5706 5704 5697 5690 5682 5675 5666 5657 5655 5655 5649 5648 5644 5630 5628 5635 5632 5628 5617 5601 5605 5615 5610 5607 5603 5594 5590 5588 5585 5582 5580 5579 5577 5575 5573
5826 5824 5823 5821 5819 5818 5816 5814 5812 5810 5808 5806 5803 5801 5800 5798 5799 5799 5797 5794 5791 5789 5789 5787 5784 5783 5780 5778 5775 5772 5771 5767 5764 5761 5757 5754 5751 5748 5748 5744 5741 5742 5741 5739 5738 5739 5736 5728 5724 5722 5714 5704 5695 5694 5697 5695 5690 5681 5669 5658 5646 5637 5633 5631 5631 5628 5619 5616 5622 5622 5615 5606 5600 5603 5605 5599 5595 5589 5583 5580 5576 5571 5567 5564 5564 5562 5561 5559
5820 5818 5817 5815 5814 5812 5811 5809 5807 5805 5803 5801 5798 5796 5794 5792 5793 5793 5791 5788 5786 5784 5784 5781 5779 5777 5774 5773 5770 5767 5765 5761 5758 5755 5752 5748 5744 5741 5740 5738 5735 5732 5731 5731 5727 5727 5728 5722 5717 5714 5708 5700 5691 5684 5681 5681 5682 5675 5662 5649 5639 5628 5616 5613 5614 5611 5607 5605 5610 5615 5606 5594 5592 5597 5596 5589 5583 5575 5569 5568 5564 5559 5555 5551 5549 5548 5545 5543
5814 5813 5811 5810 5808 5807 5805 5804 5802 5800 5798 5796 5793 5791 5789 5787 5787 5787 5784 5782 5781 5779 5778 5775 5773 5771 5769 5766 5764 5761 5758 5754 5751 5749 5746 5742 5738 5735 5733 5731 5729 5726 5723 5722 5719 5718 5718 5716 5712 5707 5700 5692 5687 5681 5670 5665 5668 5668 5660 5647 5638 5630 5615 5604 5602 5597 5590 5587 5591 5597 5594 5584 5578 5581 5581 5574 5567 5562 5556 5556 5554 5548 5546 5541 5536 5533 5528 5526
5808 5807 5806 5804 5803 5801 5800 5799 5797 5794 5792 5790 5788 5785 5784 5783 5782 5780 5778 5776 5775 5773 5771 5769 5766 5765 5763 5761 5758 5756 5752 5748 5745 5743 5739 5735 5732 5729 5727 5723 5721 5720 5716 5712 5710 5710 5712 5713 5709 5704 5698 5686 5680 5680 5669 5656 5656 5659 5655 5645 5635 5629 5616 5600 5595 5593 5582 5572 5576 5581 5579 5575 5570 5569 5571 5561 5552 5551 5546 5543 5542 5535 5534 5532 5525 5519 5514 5513
5802 5801 5800 5799 5797 5796 5794 5793 5791 5788 5786 5785 5782 5780 5779 5778 5776 5774 5772 5771 5769 5767 5765 5763 5760 5758 5757 5756 5753 5750 5747 5743 5740 5737 5732 5728 5725 5722 5720 5717 5714 5712 5709 5705 5701 5698 5700 5709 5710 5700 5694 5687 5674 5673 5669 5653 5645 5645 5642 5636 5627 5621 5614 5595 5581 5584 5579 5564 5566 5573 5567 5564 5561 5559 5558 5548 5537 5537 5533 5529 5527 5523 5520 5519 5513 5506 5503 5505
5796 5795 5795 5793 5792 5790 5788 5786 5784 5782 5780 5779 5776 5775 5774 5772 5770 5768 5766 5765 5763 5761 5758 5756 5754 5753 5751 5750 5748 5745 5741 5737 5733 5731 5726 5721 5719 5716 5712 5710 5708 5704 5700 5697 5694 5690 5684 5693 5708 5699 5686 5686 5675 5664 5664 5657 5646 5639 5632 5627 5618 5609 5610 5598 5575 5569 5567 5553 5551 5559 5553 5548 5548 5542 5536 5529 5523 5521 5519 5516 5513 5510 5507 5504 5501 5497 5494 5495
5790 5789 5789 5787 5786 5784 5782 5779 5777 5776 5774 5772 5771 5770 5768 5767 5764 5762 5760 5758 5757 5755 5752 5750 5748 5747 5745 5743 5742 5739 5735 5731 5727 5723 5720 5715 5711 5709 5705 5702 5701 5698 5693 5688 5684 5684 5675 5670 5692 5700 5682 5677 5675 5660 5652 5654 5651 5641 5628 5620 5610 5596 5592 5590 5575 5561 5551 5538 5532 5536 5538 5539 5541 5530 5516 5511 5511 5507 5502 5498 5495 5491 5489 5488 5489 5487 5484 5482
5783 5782 5782 5782 5780 5778 5775 5773 5771 5769 5767 5766 5765 5763 5762 5760 5757 5755 5754 5752 5750 5748 5746 5744 5741 5740 5739 5737 5735 5732 5728 5725 5721 5716 5712 5709 5704 5702 5699 5695 5693 5690 5687 5683 5675 5674 5671 5656 5665 5688 5682 5669 5668 5656 5641 5641 5647 5644 5633 5621 5610 5597 5585 5577 5571 5562 5546 5530 5520 5516 5518 5528 5535 5524 5507 5500 5498 5493 5486 5481 5478 5475 5471 5471 5472 5472 5470 5467
5776 5775 5776 5776 5773 5771 5769 5766 5764 5762 5760 5759 5759 5756 5754 5753 5750 5749 5747 5744 5743 5741 5738 5737 5735 5734 5732 5730 5728 5725 5722 5718 5715 5711 5707 5704 5699 5697 5695 5689 5686 5682 5677 5677 5670 5662 5664 5652 5645 5663 5673 5666 5662 5649 5631 5626 5627 5624 5620 5611 5599 5591 5580 5567 5564 5565 5550 5527 5514 5503 5495 5508 5523 5515 5499 5491 5487 5481 5475 5469 5466 5463 5459 5458 5457 5455 5454 5452
5769 5769 5770 5769 5766 5764 5762 5759 5757 5755 5753 5752 5751 5749 5747 5745 5743 5741 5740 5738 5736 5733 5731 5729 5729 5727 5725 5724 5721 5718 5715 5711 5708 5705 5701 5699 5695 5690 5689 5684 5679 5676 5669 5668 5665 5655 5652 5647 5638 5642 5653 5657 5656 5645 5629 5621 5616 5607 5600 5594 5586 5579 5568 5552 5545 5553 5549 5529 5515 5499 5478 5484 5506 5503 5488 5483 5477 5470 5466 5460 5455 5453 5450 5448 5447 5444 5443 5440
5763 5762 5763 5761 5758 5757 5754 5752 5750 5749 5746 5745 5744 5741 5739 5738 5736 5734 5732 5731 5729 5725 5724 5722 5722 5720 5717 5716 5715 5711 5708 5704 5702 5699 5695 5694 5692 5685 5682 5677 5671 5668 5663 5658 5657 5651 5643 5638 5631 5632 5639 5644 5644 5636 5624 5618 5612 5604 5596 5587 5579 5572 5563 5548 5533 5530 5528 5518 5510 5496 5471 5469 5487 5488 5479 5475 5468 5461 5459 5453 5447 5445 5443 5440 5437 5436 5435 5432
5756 5755 5755 5754 5750 5749 5746 5743 5743 5742 5739 5738 5737 5734 5733 5730 5729 5728 5725 5724 5721 5718 5717 5716 5714 5713 5710 5709 5707 5703 5700 5697 5695 5695 5690 5687 5686 5681 5675 5670 5665 5660 5654 5649 5648 5644 5637 5629 5620 5619 5626 5634 5637 5631 5621 5615 5605 5596 5592 5586 5575 5566 5560 5550 5536 5522 5509 5502 5499 5485 5463 5461 5473 5477 5472 5467 5460 5455 5453 5447 5440 5437 5436 5432 5429 5429 5427 5425
5749 5748 5748 5746 5743 5741 5738 5736 5736 5735 5733 5731 5730 5727 5725 5723 5722 5721 5718 5716 5714 5711 5710 5709 5707 5706 5704 5702 5701 5697 5693 5690 5688 5689 5686 5680 5677 5674 5669 5664 5660 5654 5645 5640 5639 5636 5632 5624 5613 5605 5604 5609 5616 5617 5613 5610 5602 5592 5588 5583 5571 5563 5557 5546 5537 5524 5507 5500 5499 5478 5454 5454 5466 5469 5464 5458 5453 5449 5446 5442 5435 5430 5427 5424 5422 5422 5420 5418
5741 5740 5740 5738 5736 5733 5731 5730 5728 5727 5726 5724 5722 5720 5717 5716 5716 5714 5711 5709 5707 5704 5703 5702 5700 5699 5697 5695 5694 5691 5687 5684 5682 5682 5681 5676 5670 5666 5662 5658 5655 5649 5640 5634 5632 5629 5625 5620 5611 5601 5593 5588 5586 5586 5586 5582 5578 5575 5574 5568 5557 5553 5547 5533 5520 5510 5496 5488 5487 5472 5449 5446 5457 5459 5453 5449 5446 5440 5436 5433 5428 5424 5420 5416 5412 5412 5412 5411
5733 5732 5732 5730 5728 5726 5725 5724 5722 5720 5719 5716 5714 5713 5711 5709 5708 5706 5704 5701 5699 5698 5696 5695 5694 5692 5690 5689 5686 5684 5681 5678 5676 5675 5674 5671 5665 5659 5655 5651 5648 5644 5636 5629 5625 5621 5617 5616 5609 5597 5592 5588 5577 5572 5572 5565 5556 5556 5555 5547 5540 5539 5534 5520 5505 5496 5486 5471 5465 5464 5453 5442 5446 5449 5444 5442 5439 5432 5427 5424 5420 5417 5414 5409 5404 5403 5403 5403
5724 5724 5724 5722 5720 5719 5718 5718 5715 5712 5711 5709 5707 5706 5705 5702 5700 5698 5696 5694 5692 5691 5689 5687 5687 5685 5683 5682 5679 5677 5675 5672 5669 5666 5664 5662 5659 5655 5650 5643 5639 5637 5632 5623 5618 5613 5609 5611 5607 5593 5589 5590 5577 5565 5565 5560 5551 5548 5542 5532 5529 5528 5521 5509 5498 5490 5481 5463 5451 5454 5454 5443 5440 5442 5438 5435 5432 5425 5420 5417 5413 5411 5407 5403 5399 5396 5395 5396
5716 5716 5716 5714 5712 5711 5710 5710 5707 5704 5704 5702 5700 5699 5698 5695 5692 5689 5688 5686 5685 5685 5682 5680 5680 5677 5675 5674 5671 5668 5667 5665 5663 5659 5655 5653 5651 5649 5647 5640 5631 5629 5626 5619 5612 5605 5599 5601 5599 5586 5585 5590 5578 5562 5559 5556 5549 5545 5537 5525 5521 5519 5508 5498 5492 5485 5477 5463 5448 5445 5446 5441 5437 5436 5433 5430 5426 5420 5415 5411 5408 5405 5402 5398 5394 5391 5389 5388
5708 5707 5707 5706 5704 5704 5703 5702 5700 5697 5696 5694 5692 5692 5690 5688 5684 5681 5678 5678 5678 5677 5676 5673 5672 5670 5667 5666 5664 5661 5659 5657 5656 5653 5648 5645 5643 5639 5638 5636 5628 5622 5618 5612 5606 5599 5590 5590 5589 5577 5577 5586 5578 5559 5553 5551 5545 5541 5534 5524 5517 5511 5501 5492 5485 5478 5471 5462 5451 5444 5440 5437 5435 5433 5429 5424 5421 5416 5411 5408 5405 5401 5398 5394 5390 5387 5385 5381
5701 5699 5699 5697 5697 5697 5695 5693 5692 5689 5688 5686 5685 5684 5682 5679 5676 5673 5670 5670 5669 5669 5668 5665 5663 5662 5660 5658 5657 5654 5652 5650 5648 5645 5641 5638 5636 5631 5626 5625 5621 5616 5611 5603 5596 5591 5581 5578 5578 5568 5566 5575 5572 5557 5550 5548 5542 5535 5527 5519 5512 5503 5494 5485 5478 5471 5463 5455 5448 5442 5435 5430 5431 5431 5425 5419 5416 5412 5408 5405 5401 5397 5394 5390 5387 5383 5380 5376
5693 5691 5690 5689 5688 5689 5687 5685 5684 5681 5680 5680 5677 5675 5674 5671 5668 5665 5662 5662 5661 5660 5659 5656 5654 5653 5651 5650 5649 5647 5646 5644 5640 5637 5633 5630 5629 5623 5617 5615 5609 5604 5604 5598 5589 5582 5572 5566 5567 5560 5553 5559 5560 5551 5545 5543 5540 5533 5523 5513 5504 5493 5483 5475 5469 5465 5458 5448 5439 5434 5428 5422 5423 5422 5417 5414 5412 5407 5403 5400 5396 5393 5390 5387 5383 5379 5375 5371
5684 5683 5683 5681 5679 5681 5680 5677 5676 5674 5673 5672 5668 5665 5665 5663 5661 5658 5654 5654 5654 5652 5651 5648 5645 5645 5643 5642 5642 5640 5638 5637 5633 5630 5627 5622 5620 5616 5609 5606 5600 5592 5590 5588 5581 5575 5565 5557 5557 5553 5543 5544 5548 5542 5535 5532 5531 5527 5518 5506 5493 5483 5474 5467 5462 5460 5456 5448 5436 5428 5423 5418 5414 5412 5407 5406 5405 5401 5396 5392 5389 5387 5385 5382 5379 5374 5369 5366